Athens, GA

7:38 PM EDT on May 26, 2017 (GMT -0400)
Athens / Epps

Weather History for KAHN - December, 2013

Change the Weather History Date:

Friday, December 20, 2013

  Actual Average Record
Temperature  
Mean Temperature 46 °F 44 °F  
Max Temperature 58 °F 55 °F 76 °F (1967)
Min Temperature 34 °F 34 °F 13 °F (1981)
Degree Days  
Heating Degree Days 19 21  
Month to date heating degree days 333 375  
Since 1 July heating degree days 895 855  
Moisture  
Dew Point 40 °F    
Average Humidity 75    
Maximum Humidity 86    
Minimum Humidity 64    
Precipitation  
Precipitation T in 0.12 in 1.42 in (1905)
Month to date precipitation 2.53 2.43  
Year to date precipitation 54.80 45.03  
Snow  
Snow 0.00 in 0.00 in 0.00 in (2001)
Month to date snowfall 0.0 0.0  
Since 1 July snowfall 0.0 0.0  
Snow Depth 0.00 in    
Sea Level Pressure  
Sea Level Pressure 30.21 in    
Wind  
Wind Speed 2 mph (ENE)    
Max Wind Speed 6 mph    
Max Gust Speed 7 mph    
Visibility 8 miles    
Events      
T = Trace of Precipitation, MM = Missing Value Source: NWS Daily Summary

Daily Weather History Graph

Daily Weather History Graph

Search for Another Location

Airport or City:

Trip Planner

Search our weather history database for the weather conditions in past years. The results will help you decide how hot, cold, wet, or windy it might be!

Date:

Astronomy

Dec. 20, 2013 Rise Set
Actual Time 7:34 AM EST 5:27 PM EST
Civil Twilight 7:06 AM EST 5:55 PM EST
Nautical Twilight 6:35 AM EST 6:26 PM EST
Astronomical Twilight 6:04 AM EST 6:57 PM EST
Moon 8:39 PM EST (12/20) 9:34 AM EST (12/20)
Length of Visible Light 10h 49m
Length of Day
9h 53m
Waning Gibbous, 90% of the Moon is Illuminated
Dec 20
Waning Gibbous
Dec 25
Last Quarter
Jan 1
New
Jan 7
First Quarter
Jan 15
Full

Hourly Weather History & Observations

Time (EST) Temp. Windchill Dew Point Humidity Pressure Visibility Wind Dir Wind Speed Gust Speed Precip Events Conditions
12:51 AM 37.9 °F 35.5 °F 28.9 °F 70% 30.21 in 10.0 mi East 3.5 mph - N/A   Clear
1:51 AM 39.9 °F 36.7 °F 28.9 °F 65% 30.20 in 10.0 mi ENE 4.6 mph - N/A   Clear
2:51 AM 37.9 °F 34.4 °F 28.9 °F 70% 30.22 in 9.0 mi NE 4.6 mph - N/A   Clear
3:51 AM 37.9 °F 35.5 °F 30.0 °F 73% 30.22 in 9.0 mi ENE 3.5 mph - N/A   Clear
4:51 AM 37.0 °F - 30.9 °F 79% 30.24 in 9.0 mi Calm Calm - N/A   Clear
5:51 AM 35.1 °F - 30.0 °F 82% 30.24 in 8.0 mi Calm Calm - N/A   Clear
6:51 AM 35.1 °F 31.0 °F 30.9 °F 85% 30.24 in 8.0 mi East 4.6 mph - N/A   Clear
7:51 AM 36.0 °F - 30.9 °F 82% 30.25 in 6.0 mi Calm Calm - N/A   Haze
8:51 AM 41.0 °F - 35.1 °F 79% 30.27 in 4.0 mi Calm Calm - N/A   Haze
9:51 AM 46.0 °F - 37.0 °F 71% 30.26 in 7.0 mi Calm Calm - N/A   Overcast
10:51 AM 48.9 °F - 39.9 °F 71% 30.27 in 7.0 mi Calm Calm - N/A   Overcast
11:51 AM 48.9 °F - 39.9 °F 71% 30.25 in 6.0 mi Calm Calm - N/A   Haze
12:51 PM 52.0 °F - 44.1 °F 74% 30.20 in 7.0 mi Calm Calm - 0.00 in   Overcast
1:51 PM 55.9 °F - 46.0 °F 69% 30.18 in 8.0 mi SW 3.5 mph - N/A   Overcast
2:51 PM 57.0 °F - 48.0 °F 72% 30.18 in 8.0 mi Calm Calm - N/A   Overcast
3:51 PM 57.0 °F - 48.9 °F 74% 30.17 in 8.0 mi South 3.5 mph - N/A   Overcast
4:51 PM 57.0 °F - 48.0 °F 72% 30.17 in 9.0 mi Calm Calm - N/A   Overcast
5:51 PM 55.0 °F - 48.0 °F 77% 30.19 in 10.0 mi East 4.6 mph - N/A   Overcast
6:51 PM 54.0 °F - 48.9 °F 83% 30.19 in 8.0 mi East 3.5 mph - 0.00 in   Overcast
7:51 PM 51.1 °F - 46.9 °F 86% 30.20 in 7.0 mi Calm Calm - N/A   Mostly Cloudy
8:51 PM 50.0 °F - 46.9 °F 89% 30.19 in 7.0 mi Calm Calm - N/A   Scattered Clouds
9:51 PM 48.0 °F - 45.0 °F 89% 30.18 in 6.0 mi NE 4.6 mph - N/A   Partly Cloudy
10:51 PM 51.1 °F - 46.9 °F 86% 30.17 in 6.0 mi ENE 4.6 mph - N/A   Mostly Cloudy
11:51 PM 48.9 °F - 46.0 °F 90% 30.16 in 6.0 mi Calm Calm - N/A   Mostly Cloudy